Location: 5810 Zion Rd, Cleves, OH 45002, USA
(39.1922°N, 84.7113°W)
Time: 14:49:51
(UTC-05:00)

Vanguard 2 - All Passes

Search period start: 07 December 2019 00:00
Search period end: 17 December 2019 00:00
Orbit: 553 x 2938 km, 32.9° (Epoch: 07 December)

Date Brightness Start Highest point End Pass type
(mag) Time Alt. Az. Time Alt. Az. Time Alt. Az.
07 Dec - 01:43:55 10° SSW 01:58:30 43° SSE 02:14:22 10° E visible
07 Dec - 03:53:01 10° WSW 04:10:21 66° SSE 04:26:01 10° E visible
07 Dec - 06:05:04 10° W 06:22:46 68° S 06:35:49 10° ESE visible
07 Dec - 08:18:42 10° W 08:33:28 44° SSW 08:43:25 10° SE daylight
07 Dec - 10:35:39 10° WSW 10:41:25 14° SW 10:46:11 10° SSW daylight
07 Dec - 23:55:47 10° S 00:06:04 23° SE 00:18:04 10° E visible
08 Dec - 02:01:05 10° SW 02:16:13 50° SSE 02:32:42 10° E visible
08 Dec - 04:10:54 10° WSW 04:28:26 69° S 04:44:04 10° E visible
08 Dec - 06:23:16 10° W 06:40:45 64° SSW 06:53:35 10° ESE visible
08 Dec - 08:37:12 10° W 08:50:58 37° SW 09:00:32 10° SSE daylight
09 Dec - 00:11:51 10° SSW 00:23:25 30° SE 00:37:19 10° E visible
09 Dec - 02:18:31 10° SW 02:34:03 57° SSE 02:50:56 10° E visible
09 Dec - 04:28:54 10° WSW 04:46:33 70° S 05:02:03 10° E visible
09 Dec - 06:41:28 10° W 06:58:39 59° SSW 07:11:15 10° SE visible
09 Dec - 08:55:54 10° W 09:08:21 29° SW 09:17:21 10° SSE daylight
09 Dec - 22:29:57 10° SE 22:32:14 11° SE 22:34:38 10° ESE night (unlit)
10 Dec - 00:28:28 10° SSW 00:40:50 37° SE 00:56:06 10° E visible
10 Dec - 02:36:08 10° WSW 02:51:59 63° SSE 03:09:04 10° E visible
10 Dec - 04:46:58 10° W 05:04:39 70° S 05:20:01 10° ESE visible
10 Dec - 06:59:44 10° W 07:16:27 52° SSW 07:28:45 10° SE visible
10 Dec - 09:15:03 10° W 09:25:35 23° SW 09:33:40 10° S daylight
10 Dec - 22:42:18 10° SSE 22:49:23 16° SE 22:57:45 10° E night (unlit)
11 Dec - 00:45:26 10° SW 00:58:23 45° SSE 01:14:36 10° E visible
11 Dec - 02:53:54 10° WSW 03:10:00 67° S 03:27:12 10° E visible
11 Dec - 05:05:04 10° W 05:22:44 68° S 05:37:53 10° ESE visible
11 Dec - 07:18:05 10° W 07:34:06 45° SSW 07:46:04 10° SE visible
11 Dec - 09:35:01 10° W 09:42:45 16° SW 09:49:09 10° SSW daylight
11 Dec - 22:57:40 10° S 23:06:33 23° SE 23:17:47 10° E night (unlit)
12 Dec - 01:02:42 10° SW 01:16:03 52° SSE 01:32:57 10° E visible
12 Dec - 03:11:47 10° WSW 03:28:05 70° S 03:45:16 10° E visible
12 Dec - 05:23:13 10° W 05:40:44 64° SSW 05:55:40 10° ESE visible
12 Dec - 07:36:35 10° W 07:51:38 38° SW 08:03:07 10° SSE daylight
12 Dec - 09:58:26 10° WSW 09:59:50 10° SW 10:01:13 10° SW daylight
12 Dec - 23:13:55 10° SSW 23:23:49 30° SE 23:36:58 10° E night (unlit)
13 Dec - 01:20:11 10° SW 01:33:51 58° SSE 01:51:12 10° E visible
13 Dec - 03:29:45 10° W 03:46:12 71° S 04:03:20 10° ESE visible
13 Dec - 05:41:24 10° W 05:58:40 58° SSW 06:13:19 10° SE visible
13 Dec - 07:55:20 10° W 08:09:01 30° SW 08:19:47 10° SSE daylight
13 Dec - 23:30:39 10° SSW 23:41:11 37° SE 23:55:42 10° E visible
14 Dec - 01:37:50 10° WSW 01:51:45 64° SSE 02:09:25 10° E visible
14 Dec - 03:47:47 10° W 04:04:18 70° S 04:21:18 10° ESE visible
14 Dec - 05:59:38 10° W 06:16:29 52° SSW 06:30:46 10° SE visible
14 Dec - 08:14:32 10° W 08:26:19 23° SW 08:35:58 10° S daylight
14 Dec - 21:44:51 10° SSE 21:50:25 15° SE 21:57:11 10° E night (unlit)
14 Dec - 23:47:43 10° SW 23:58:42 45° SSE 00:14:12 10° E visible
15 Dec - 01:55:36 10° WSW 02:09:45 68° S 02:27:35 10° E visible
15 Dec - 04:05:50 10° W 04:22:22 67° SSW 04:39:11 10° ESE visible
15 Dec - 06:17:57 10° W 06:34:10 44° SSW 06:47:59 10° SE visible
15 Dec - 08:34:36 10° W 08:43:32 17° SW 08:51:17 10° SSW daylight
15 Dec - 22:00:19 10° S 22:07:33 22° SE 22:17:09 10° E night (unlit)
16 Dec - 00:05:03 10° SW 00:16:20 52° SSE 00:32:33 10° E visible
16 Dec - 02:13:27 10° WSW 02:27:49 70° S 02:45:41 10° E visible
16 Dec - 04:23:55 10° W 04:40:24 62° SSW 04:56:57 10° ESE visible
16 Dec - 06:36:28 10° W 06:51:44 37° SW 07:04:56 10° SSE visible
16 Dec - 08:57:28 10° WSW 09:00:43 11° SW 09:03:48 10° SW daylight
16 Dec - 22:16:40 10° SSW 22:24:48 28° SE 22:36:17 10° E night (unlit)
